Location: Killam
(52.7910°N, 111.8608°W)
Time: 12:44:14
(UTC+00:00)

METEOR M2 - Pass Details

Date: 15 March 2026
Orbit: 817 x 824 km, 98.5° (Epoch: 14 April)

Event Time Altitude Azimuth Distance (km) Brightness Sun altitude
Rises 13:04:35 0° 11° (N) 3,375 ? -6.4°
Reaches altitude 10° 13:07:05 10° 3° (N) 2,438 ? -6.0°
Maximum altitude 13:11:58 37° 298° (WNW) 1,275 ? -5.3°
Drops below altitude 10° 13:16:50 10° 233° (SW) 2,423 ? -4.5°
Sets 13:19:20 0° 225° (SW) 3,352 ? -4.2°
